Wind_Speed
8 7 7 6 5 4 2 0 1 2 4 5 5 5 6 6 7 8 9 10 12 13 14 13 13 12 12 12 12 12 12 13 13 13 14 13 14 13 13 12 11 10 10 9 9 9 10 10 10 10 10 10 11 11 12 13 14 15 16 17 17 18 19 20 21 23 24 24 25 26 26 28 29 30 31 31 31 31 31 30 30 29 29 29 30
11 10 10 9 8 7 5 3 2 2 1 3 3 3 3 3 4 5 6 6 7 9 11 11 11 11 11 10 10 10 10 10 10 10 10 11 11 11 10 10 9 8 7 6 6 6 7 8 8 8 8 7 8 8 9 11 12 14 14 15 15 16 17 18 20 21 22 23 24 25 26 27 28 28 29 29 29 30 31 31 30 30 30 30 30
15 13 12 11 11 10 9 8 6 5 4 3 3 3 2 1 1 2 3 3 4 5 6 8 9 10 9 9 9 9 9 8 8 8 7 7 8 8 8 8 7 6 5 4 3 3 2 3 4 5 5 5 5 6 7 8 10 11 12 12 13 14 15 17 18 19 20 22 23 23 24 24 25 25 26 26 25 26 28 30 30 29 29 29 29
18 17 15 14 14 13 12 12 10 9 8 7 5 5 5 4 3 2 1 0 1 1 2 4 6 7 7 7 8 8 8 7 7 7 7 6 6 6 6 6 6 6 6 5 4 3 2 1 2 2 3 4 4 5 6 7 8 9 10 11 12 13 14 15 16 17 18 20 20 21 21 22 22 23 23 24 24 24 25 27 29 30 29 28 28
22 20 19 17 16 15 15 15 14 13 12 11 9 8 7 7 7 5 4 3 2 2 2 2 2 4 5 5 5 6 6 6 6 6 6 6 6 5 5 5 5 5 5 4 4 4 3 3 3 3 4 4 5 5 6 7 8 8 9 10 10 11 12 13 14 16 17 17 18 19 20 20 21 22 22 23 23 23 23 24 26 28 30 29 28
22 21 21 20 18 17 17 17 17 16 16 15 13 12 11 10 10 9 8 7 6 5 4 4 4 3 3 3 4 4 4 4 4 4 4 4 4 3 3 2 2 2 2 3 3 3 3 3 3 4 4 5 5 6 7 7 8 8 9 9 9 10 11 12 13 15 15 16 16 17 18 18 19 20 22 23 24 24 24 23 23 25 27 29 29
24 23 23 22 21 20 19 18 18 19 18 18 17 16 15 14 13 13 12 12 11 10 8 7 6 6 6 4 3 4 4 4 3 3 3 3 2 2 2 1 1 1 1 2 2 3 3 3 4 5 5 5 6 6 7 8 8 9 9 9 10 10 11 12 13 13 14 14 14 15 16 16 17 17 19 20 22 24 24 24 23 22 23 25 28
27 26 26 26 25 23 22 21 20 21 21 21 21 20 19 18 17 17 17 16 15 14 13 11 10 9 9 8 6 6 6 5 5 4 4 4 4 3 3 2 1 1 2 2 2 2 2 2 3 4 4 5 5 6 7 8 9 10 10 11 11 11 12 12 13 13 13 13 13 13 13 14 15 15 16 17 18 19 21 23 24 23 22 22 23
28 29 29 28 26 25 25 24 22 23 24 25 24 24 24 23 22 21 20 19 19 19 17 16 14 13 12 11 10 9 10 9 7 5 5 6 6 6 5 4 3 2 2 1 1 1 1 2 2 3 4 5 6 7 7 8 9 9 9 10 10 11 11 12 12 12 11 11 11 11 11 12 13 13 14 14 15 16 17 19 21 22 23 22 21
31 31 30 29 28 28 29 29 27 27 29 28 28 28 27 26 26 26 24 23 22 22 22 21 19 18 16 15 14 12 12 12 10 8 8 8 7 7 8 7 7 6 5 5 5 4 4 4 3 4 5 6 7 7 8 8 9 9 9 9 9 9 10 10 10 10 10 10 9 9 9 9 10 11 11 12 12 13 15 16 17 19 21 21 21
33 32 32 32 31 30 29 30 30 29 29 30 30 29 27 26 29 30 29 28 26 24 24 24 23 22 21 19 17 16 15 14 13 12 11 11 11 11 11 11 10 10 9 8 8 8 8 7 7 6 6 7 8 9 10 10 10 11 11 11 11 11 11 10 10 10 10 10 9 8 7 7 7 8 8 9 9 10 11 12 14 16 17 19 20
32 33 32 33 34 32 30 31 32 31 30 31 32 31 28 27 30 32 32 32 30 27 26 27 27 26 25 24 21 20 20 19 18 16 16 16 16 15 15 14 14 13 11 11 10 10 11 11 11 10 10 10 10 11 12 12 13 13 13 13 14 14 13 13 13 12 12 12 11 10 8 7 6 5 5 6 6 7 8 9 10 12 14 16 18
33 33 33 34 35 34 33 34 35 34 33 33 34 34 32 30 31 33 35 35 34 31 28 29 30 30 29 28 26 25 24 24 24 22 21 21 20 19 19 18 17 16 15 14 13 13 13 14 13 13 13 13 13 13 14 14 14 14 15 15 15 15 15 15 14 14 14 13 13 13 11 9 8 5 3 3 4 5 5 6 8 10 12 14 17
36 35 34 35 36 36 36 37 37 36 36 37 37 38 37 36 35 36 39 39 36 34 31 31 31 32 31 31 30 29 28 28 27 26 25 25 24 23 22 21 20 19 18 17 16 16 16 16 16 15 15 15 16 16 17 17 16 16 16 17 17 17 17 17 16 15 15 14 14 14 13 12 11 9 6 4 4 4 5 6 8 10 12 14 17
37 36 35 37 39 39 40 41 41 39 39 38 40 41 40 40 39 39 42 42 39 36 34 31 30 32 33 33 33 33 32 32 31 30 28 27 26 26 25 25 24 23 21 20 19 18 18 17 17 18 19 19 18 19 20 20 20 19 19 19 19 19 19 19 18 18 17 16 16 15 15 15 14 13 11 8 6 6 7 8 10 11 13 15 18
36 36 37 39 42 42 42 44 44 42 40 41 44 44 44 43 42 41 43 44 42 38 34 30 30 32 35 35 35 36 36 36 35 34 32 30 29 29 29 29 28 27 25 24 22 21 19 19 19 21 22 22 22 23 24 24 24 23 24 24 24 23 22 21 20 20 19 19 18 17 17 17 17 16 15 13 11 11 11 13 14 15 16 18 20
40 39 41 43 43 44 46 47 47 44 42 45 47 47 46 46 46 45 43 43 43 41 37 34 34 34 35 36 35 36 38 39 38 38 36 34 32 32 32 31 31 30 29 27 26 24 23 22 21 22 25 27 28 29 29 27 27 27 28 29 29 28 27 26 23 22 22 21 20 18 18 18 18 18 17 16 14 15 16 17 17 18 19 21 23
46 45 45 44 42 44 50 53 51 46 45 48 49 48 48 48 49 49 47 44 43 41 39 38 37 36 38 39 37 35 37 39 40 41 40 38 35 34 33 32 32 32 31 29 27 27 26 25 23 24 26 28 29 30 29 29 28 28 29 32 34 34 32 30 29 27 25 25 23 22 21 21 20 20 20 18 17 18 20 21 22 23 23 24 25
51 50 50 48 44 44 48 54 55 51 49 51 51 50 50 51 52 54 52 49 46 43 42 43 41 40 41 42 41 39 37 37 40 42 42 40 37 33 32 31 32 33 32 30 28 28 28 28 27 27 28 30 31 30 30 30 30 30 33 36 38 38 36 34 33 32 30 29 28 27 26 25 24 24 24 23 23 23 24 25 26 27 26 26 27
55 52 54 55 52 48 48 52 56 56 55 55 54 53 53 54 54 57 57 55 53 50 48 48 48 47 47 47 46 45 41 38 39 42 43 42 38 34 32 32 33 34 34 33 32 32 32 32 32 30 30 32 33 32 31 32 33 35 38 41 41 39 37 35 35 35 35 35 34 33 32 30 28 28 29 29 30 30 31 33 33 32 32 32 32
59 56 57 60 59 54 51 52 55 57 57 56 54 54 57 58 57 58 59 59 59 58 56 53 50 50 51 51 50 49 46 42 41 42 44 43 40 38 36 34 34 35 36 36 36 36 36 35 34 33 32 33 35 35 35 36 39 42 44 44 43 40 38 37 37 37 37 39 40 40 39 36 32 31 32 33 34 35 36 38 39 39 40 40 38
64 62 61 61 60 57 54 53 55 57 58 58 55 53 55 58 58 58 59 60 61 62 63 59 54 54 55 55 53 52 51 47 44 45 46 46 45 43 40 39 39 39 39 40 40 41 40 38 36 36 35 36 38 38 39 42 45 46 45 45 43 42 41 41 41 42 42 42 44 46 46 43 39 36 35 36 37 38 39 41 43 45 46 45 43
68 66 63 61 61 58 54 54 56 59 60 61 60 58 57 60 60 60 59 59 60 61 63 63 59 58 59 58 56 55 55 53 50 49 49 50 51 50 48 46 44 44 45 45 45 45 45 44 42 40 38 38 40 42 43 44 43 44 46 46 45 44 45 46 47 47 47 47 49 51 52 50 46 43 40 40 40 40 40 42 45 47 48 49 49
73 69 65 62 63 61 56 55 57 58 60 63 64 65 65 67 66 65 63 63 62 61 62 64 63 62 62 63 60 59 59 58 56 54 53 53 54 55 55 54 52 50 50 51 51 49 48 49 48 46 43 43 43 44 44 42 39 41 48 51 49 48 49 51 51 51 51 52 52 51 51 51 51 50 47 45 43 42 43 45 48 50 52 53 54
80 75 69 66 66 66 61 59 59 59 60 64 66 68 70 71 70 69 69 68 68 66 66 67 68 66 66 66 65 64 64 63 62 60 58 58 57 58 59 60 60 57 56 57 57 56 55 55 54 53 50 48 47 46 46 45 44 45 49 50 51 52 52 53 55 55 55 56 54 51 50 51 52 52 51 50 49 47 48 51 54 56 56 56 56
85 83 77 71 71 71 68 65 64 64 64 66 68 71 73 73 73 73 74 73 73 72 72 72 73 71 70 70 69 68 68 69 69 67 65 63 62 62 62 63 65 64 63 61 60 60 60 61 61 60 57 53 50 48 48 48 49 49 50 51 54 57 57 57 59 61 61 61 61 60 59 58 58 57 57 57 57 56 55 57 59 60 60 60 60
88 88 86 80 76 76 75 72 69 68 68 69 70 73 75 76 76 76 77 78 77 77 76 77 77 76 75 75 74 73 72 73 73 72 70 68 67 67 66 67 68 69 69 66 64 62 63 63 64 65 63 58 55 53 52 52 52 52 53 56 59 62 64 64 64 66 66 67 67 67 67 68 67 67 67 67 67 66 64 63 63 64 64 65 65
91 91 91 89 85 82 80 79 76 73 72 72 72 73 76 77 78 78 79 80 80 80 79 79 80 80 79 79 79 79 79 78 78 77 75 73 72 71 71 71 72 73 73 72 70 68 67 66 66 68 67 64 61 59 59 59 58 57 57 59 61 65 68 68 68 68 69 69 70 70 70 71 72 73 74 74 74 72 70 68 68 68 69 70 70
96 95 94 93 92 89 87 86 83 80 78 76 76 76 77 78 80 81 82 82 83 84 83 82 83 83 82 82 82 83 84 84 84 83 81 79 77 75 74 74 75 76 77 77 76 74 73 71 70 72 72 71 68 66 65 65 64 62 62 63 65 68 70 71 71 71 72 72 73 74 74 75 76 77 78 78 78 77 76 76 76 76 77 77 77
100 100 98 97 96 94 93 92 91 88 85 83 82 81 80 81 82 83 84 85 86 87 87 87 87 87 85 85 85 86 87 88 88 88 87 86 84 81 79 77 77 78 79 80 79 79 78 77 75 76 77 77 75 72 71 71 70 69 69 70 71 72 73 74 74 75 76 76 77 78 79 80 82 82 82 82 81 82 82 83 83 83 83 82 82
102 103 103 101 100 99 97 96 96 94 92 90 88 87 86 86 86 86 87 88 89 89 89 90 90 90 90 89 88 89 90 90 91 91 91 91 90 89 86 83 82 81 81 82 82 82 83 83 82 82 82 82 80 78 77 77 76 75 76 76 76 76 76 77 78 78 79 80 81 83 84 86 87 88 89 89 88 88 88 89 88 87 87 86 86
106 106 106 106 105 104 102 100 99 98 97 95 94 92 91 90 90 89 90 90 91 92 92 91 91 91 91 91 91 92 92 93 93 93 93 94 93 93 91 90 87 86 85 84 84 84 85 86 87 87 86 85 84 83 82 82 81 81 80 80 80 80 81 81 81 81 82 84 86 87 88 90 91 92 93 94 95 95 95 95 94 92 91 91 91
111 110 110 110 110 109 108 106 104 103 101 99 98 97 96 96 95 94 93 93 93 94 94 94 93 93 92 92 92 93 94 94 95 95 95 96 96 95 94 93 91 90 89 88 87 87 88 88 89 90 89 88 87 86 86 85 86 86 86 86 86 87 87 87 87 88 88 89 90 91 91 92 92 93 95 96 98 99 99 99 97 96 95 94 94
117 116 115 114 114 114 114 112 110 109 107 105 103 102 101 100 99 99 98 97 96 96 96 96 96 95 94 93 92 92 93 94 95 97 98 98 98 98 97 96 94 93 93 92 91 91 91 91 91 92 92 91 90 90 89 90 91 92 92 92 92 92 93 93 93 94 94 94 94 94 94 94 93 94 95 97 98 100 101 100 99 98 97 97 97
123 122 121 119 118 118 118 118 117 115 114 112 110 108 106 104 103 103 102 102 101 100 99 98 98 98 97 96 95 94 93 93 94 96 98 100 100 100 99 98 97 96 96 95 95 95 94 94 94 94 95 95 95 95 94 95 96 96 96 96 96 96 96 96 96 96 96 96 96 96 96 96 96 96 97 98 99 100 101 101 101 101 101 101 101
128 126 125 125 124 123 122 122 122 121 120 119 117 115 113 111 109 107 107 106 106 105 104 103 103 102 102 101 101 100 99 98 98 98 99 100 102 102 102 100 100 99 99 99 98 98 98 98 98 97 97 97 97 97 98 98 99 99 98 98 98 97 97 97 97 98 98 98 98 98 98 99 99 99 100 101 101 102 103 103 104 104 104 104 104
130 129 128 127 128 128 127 126 126 126 126 125 125 123 122 120 117 115 113 112 111 111 111 110 110 108 108 107 107 107 106 105 104 103 102 102 103 104 104 104 103 103 102 102 102 102 102 102 102 101 101 100 100 100 101 102 102 102 102 103 102 102 102 102 102 103 103 104 103 103 103 103 103 104 104 104 104 105 106 106 107 107 108 108 108
132 132 131 130 130 131 132 131 131 130 130 130 130 130 129 128 127 125 122 120 118 117 116 116 116 115 114 113 113 113 112 111 110 109 108 107 106 107 107 107 107 106 106 106 105 105 104 105 105 105 105 105 105 105 106 107 108 109 109 109 109 109 109 110 110 110 110 110 110 109 109 109 108 108 109 109 109 110 111 111 112 112 112 112 113
134 134 134 133 132 133 134 135 136 136 136 135 136 135 135 134 134 132 131 129 127 125 123 121 120 119 119 119 118 118 118 117 116 114 113 112 111 111 111 111 111 111 111 111 111 111 110 110 110 109 109 109 109 109 110 111 112 113 113 114 114 114 115 115 116 116 115 115 114 114 113 113 113 113 113 114 114 115 115 116 116 116 116 117 117
134 135 135 136 136 135 135 136 137 138 139 140 141 141 141 140 139 138 137 135 134 132 130 128 125 124 123 122 122 123 123 122 122 121 119 117 116 116 116 116 116 116 116 117 117 117 117 116 116 116 116 115 115 115 116 116 116 117 117 117 117 118 118 119 119 118 118 118 117 117 116 116 117 117 117 118 119 119 119 119 120 120 121 121 122
135 135 136 137 137 138 138 138 138 138 139 140 141 143 144 144 144 143 142 141 139 138 136 134 132 130 128 126 126 126 126 127 127 126 125 124 123 122 121 121 121 121 121 121 121 121 121 121 121 121 121 121 121 121 121 121 121 121 121 121 121 121 121 121 122 122 122 122 122 122 122 122 123 123 124 124 124 124 124 124 124 125 125 126 126
137 137 137 138 138 139 140 140 141 141 141 141 141 142 143 144 145 146 146 146 145 144 142 140 138 136 134 132 131 130 129 130 130 131 131 130 129 128 126 126 125 125 125 124 124 124 124 124 124 124 124 124 124 124 125 125 125 125 126 126 127 127 127 127 127 127 127 128 128 128 128 128 128 128 128 128 128 128 128 128 127 127 127 128 129
138 139 139 139 140 140 141 142 142 143 143 143 143 143 144 144 145 146 147 147 147 147 146 145 144 142 140 138 136 135 133 132 132 133 134 134 134 133 132 131 130 129 129 128 128 127 127 127 127 127 127 127 127 128 128 128 129 130 131 132 133 133 133 133 132 132 132 132 132 131 131 131 131 131 131 131 131 131 130 130 129 130 130 132 133
140 140 141 141 141 142 142 143 143 144 144 144 144 145 145 146 146 147 147 148 148 148 148 147 147 146 146 144 143 141 138 136 135 134 134 135 135 135 135 135 134 134 134 134 133 133 132 132 131 131 131 131 131 132 132 133 134 135 136 136 136 137 136 136 136 136 136 136 135 135 135 135 135 135 135 135 134 134 134 134 134 135 135 136 137
138 140 141 142 143 143 143 144 144 145 145 145 146 146 146 147 147 148 148 149 149 149 149 149 148 148 148 148 147 146 145 143 141 138 137 135 135 136 136 137 137 138 138 138 138 138 138 137 137 137 137 137 137 137 137 137 138 138 138 138 138 138 138 138 139 139 139 140 139 139 139 139 139 138 138 138 137 138 138 138 139 140 140 142 143
133 137 139 141 142 143 144 145 145 146 146 146 147 147 148 148 149 149 149 150 150 150 150 150 150 150 149 149 149 148 148 147 146 144 142 140 139 138 138 139 139 140 141 141 141 141 141 141 141 141 141 141 141 141 141 141 140 140 140 140 141 141 142 142 143 144 144 145 145 145 145 144 144 143 143 143 143 143 144 144 145 146 147 148 149
125 129 133 136 139 141 143 144 145 146 146 147 147 148 148 149 149 149 150 150 151 151 151 151 151 151 151 151 150 150 149 148 147 147 146 145 144 143 142 141 141 141 142 143 143 144 144 145 145 145 145 145 146 146 146 146 146 146 146 146 146 147 147 148 149 149 149 149 149 149 150 150 149 149 149 149 150 150 150 150 151 151 152 153 153
115 119 123 127 131 134 137 140 142 144 145 146 147 148 148 149 149 150 150 151 151 151 152 152 152 152 152 152 152 151 151 150 149 149 148 147 147 146 146 145 144 144 143 143 144 144 145 145 146 147 147 148 149 149 150 150 151 151 151 151 151 151 151 151 151 151 151 152 152 152 152 153 153 154 154 154 155 155 155 155 156 156 156 157 157
105 109 113 117 121 124 128 132 135 138 141 143 145 146 147 148 149 150 150 151 151 152 152 152 152 152 152 152 152 152 152 152 151 151 150 150 150 149 149 148 148 148 147 146 146 146 146 146 147 147 148 148 149 150 151 151 152 152 153 153 153 153 153 153 153 153 153 154 154 155 155 156 156 156 157 157 158 158 159 159 159 159 159 159 159
97 100 104 107 110 114 117 121 125 128 132 135 138 141 143 145 146 148 149 150 150 151 151 151 151 151 151 152 152 152 152 152 152 152 152 152 152 151 151 151 151 151 151 150 150 150 150 150 151 151 151 152 152 152 153 153 153 153 154 154 155 155 155 155 155 156 156 157 158 158 158 158 159 159 159 159 160 160 160 160 159 159 159 158 157
90 93 96 98 101 104 107 110 114 117 120 124 127 130 133 136 139 142 144 146 148 148 149 150 150 150 150 151 151 151 152 152 152 152 152 153 153 153 153 153 153 153 153 153 153 153 153 153 153 154 154 155 155 156 156 157 157 157 157 158 158 158 159 159 160 160 160 161 161 161 161 161 161 161 161 160 160 160 159 159 158 158 157 156 156
Wind_Direction
228 234 236 236 226 212 203 112 104 113 109 104 89 73 65 65 68 73 76 77 77 77 79 81 85 91 97 103 111 118 124 131 136 142 146 146 145 142 138 135 131 126 122 117 111 104 101 98 94 86 76 66 57 48 41 38 33 30 28 28 29 30 30 30 31 34 37 42 47 52 55 56 55 53 52 51 52 53 54 52 51 50 51 51 50
232 234 236 239 240 236 236 249 262 254 190 146 135 110 86 70 63 66 74 80 84 82 81 81 82 86 94 101 108 113 119 127 134 141 148 155 158 159 156 152 147 140 134 126 118 107 101 96 91 84 74 63 53 42 33 28 24 21 21 22 25 27 28 28 29 32 36 41 47 50 53 55 55 54 51 49 47 47 49 50 50 48 46 47 47
237 235 234 236 240 241 240 244 255 264 260 233 203 186 173 151 85 65 66 73 87 94 94 91 87 86 89 94 102 111 117 124 129 135 144 153 162 169 175 178 179 179 175 168 157 135 105 86 74 68 58 47 38 30 22 17 16 16 17 18 20 22 23 25 28 32 37 42 46 49 51 53 55 56 56 54 50 47 45 45 48 48 47 44 42
236 234 232 233 235 239 241 245 250 259 264 263 255 237 217 207 211 217 221 37 60 92 119 114 106 100 96 95 98 103 110 120 129 134 140 146 156 166 177 186 195 203 210 217 223 231 247 284 334 355 1 0 4 8 9 10 10 11 13 14 16 16 18 22 28 35 40 43 46 50 53 54 55 56 57 57 56 53 48 44 44 46 48 47 43
234 233 233 233 234 235 238 242 246 252 259 264 268 264 250 232 224 226 234 243 252 264 254 213 156 129 116 114 113 109 109 114 125 137 145 150 156 162 172 184 196 207 216 222 229 237 249 267 288 310 325 334 342 350 354 357 359 3 5 6 9 11 15 22 31 38 42 45 48 53 56 56 57 57 57 58 58 57 54 49 45 43 44 47 45
239 241 240 240 241 241 243 245 246 249 253 259 265 269 266 254 242 236 235 236 241 246 253 255 245 224 182 144 140 146 148 139 134 137 143 147 149 152 154 165 191 215 232 246 256 264 272 283 296 306 314 323 331 336 340 344 350 356 0 4 8 13 20 27 34 40 43 47 50 54 58 59 59 58 58 58 58 58 58 56 51 47 44 44 45
240 243 245 246 248 252 254 257 257 256 256 258 261 264 267 265 258 250 242 236 236 238 240 245 247 244 243 229 191 176 185 197 195 174 157 148 144 143 132 108 72 34 1 341 327 321 319 320 320 319 321 326 332 338 344 351 0 8 11 15 18 22 26 30 33 37 40 44 49 53 56 60 60 59 58 56 56 55 55 55 54 51 47 44 42
237 237 241 245 249 253 256 259 261 262 263 261 261 261 262 263 262 259 254 247 241 237 235 237 240 241 241 240 232 219 212 218 222 212 200 192 188 186 182 175 156 72 30 20 12 1 353 348 343 340 343 348 353 359 4 9 13 18 21 21 22 22 24 27 29 31 34 39 44 47 50 54 57 58 57 55 53 52 51 50 50 48 46 44 40
237 238 239 243 249 254 256 258 260 265 265 263 261 261 261 260 259 259 258 256 252 247 241 237 238 239 237 234 234 231 229 232 237 235 231 224 218 218 220 221 227 232 242 262 295 319 322 332 337 347 351 358 0 2 5 7 9 11 12 12 12 14 16 19 20 21 23 27 33 39 44 50 53 54 55 53 50 48 48 46 44 43 42 41 39
237 240 241 245 252 257 258 258 261 264 265 264 261 260 259 259 258 256 255 257 258 256 251 245 240 238 237 234 232 231 234 240 244 249 257 258 251 246 245 249 255 260 260 256 253 258 266 277 293 311 326 331 336 342 346 349 350 350 350 351 354 359 3 6 7 7 7 12 20 29 34 43 51 51 50 49 46 43 42 38 35 34 33 33 33
236 241 244 247 251 255 258 259 260 261 263 265 262 258 259 263 264 261 257 256 258 260 259 256 250 245 241 239 236 236 238 243 247 252 259 267 269 265 260 258 262 268 271 269 262 257 256 258 262 270 282 295 304 312 319 324 327 329 331 332 334 338 343 344 346 348 349 351 356 7 12 17 33 47 48 46 44 40 36 31 27 24 23 22 23
239 246 250 251 251 253 256 260 262 261 259 261 261 259 261 267 270 268 263 257 253 254 256 257 255 251 248 245 242 242 243 245 248 251 256 263 267 269 268 265 265 267 272 273 271 269 266 265 264 263 265 271 278 287 295 302 308 313 315 316 318 321 323 324 325 327 330 332 333 337 344 348 356 21 42 39 37 36 33 25 19 15 14 11 10
239 247 253 256 255 255 256 259 261 260 255 254 254 255 258 261 263 266 267 259 249 246 250 253 252 251 249 247 245 245 247 248 249 249 251 254 258 263 265 265 265 265 267 270 273 275 276 277 278 279 278 276 275 277 281 285 291 295 298 300 302 303 304 304 306 309 312 315 316 317 321 325 323 327 352 11 14 16 17 14 7 2 0 358 358
233 240 247 253 254 253 251 251 252 253 253 253 251 250 252 255 255 257 261 258 249 246 251 253 252 252 252 250 248 247 248 250 252 253 253 254 257 258 260 261 262 262 262 266 269 273 276 280 286 290 290 287 283 281 281 282 283 284 285 286 288 290 291 291 290 290 292 294 296 300 304 307 306 302 303 314 332 338 340 341 344 345 343 343 345
231 233 237 246 251 249 247 246 248 252 257 258 255 249 247 249 250 251 254 253 249 250 254 253 250 250 251 251 251 250 249 249 251 253 254 257 260 261 262 262 262 262 262 263 265 268 273 279 286 287 286 287 290 289 287 287 287 287 286 283 281 281 282 283 283 281 279 279 280 285 288 290 290 289 286 289 299 308 313 317 324 330 331 331 333
230 229 228 236 245 247 246 245 247 251 255 256 255 252 248 247 246 247 249 247 245 248 254 256 254 250 249 251 251 251 252 251 250 251 252 254 257 259 262 263 263 262 262 261 264 267 271 275 281 277 272 276 288 292 291 290 288 289 289 287 283 280 278 277 278 279 278 276 276 278 280 280 280 279 278 280 289 299 306 312 315 317 318 319 321
226 226 224 227 236 242 242 242 243 246 246 245 249 253 252 248 247 246 244 240 239 243 248 253 257 254 250 251 252 252 253 253 253 252 251 251 253 258 260 260 260 261 262 262 264 267 269 274 280 277 270 273 283 288 289 288 287 288 289 288 285 281 278 276 276 276 276 276 275 274 273 274 277 279 279 280 285 293 300 304 306 307 308 309 310
224 225 223 223 231 239 240 238 240 243 242 240 245 250 251 248 248 248 244 237 235 238 240 245 255 258 254 251 252 252 252 253 254 254 252 252 255 257 258 258 258 259 261 263 264 265 267 272 278 278 274 275 282 287 287 285 284 285 287 289 287 283 278 276 275 275 273 272 270 268 267 268 273 278 281 281 281 285 290 294 296 297 299 301 302
222 225 224 222 226 234 236 234 235 237 239 240 242 246 247 246 247 248 246 242 238 237 238 241 249 256 256 254 252 252 252 253 255 254 252 252 253 253 254 257 259 259 260 261 262 263 264 267 271 274 272 274 282 288 288 285 284 284 288 290 287 282 278 275 276 276 275 272 269 266 265 267 270 273 276 277 277 278 281 286 290 291 292 294 296
221 223 223 222 224 229 231 230 230 231 235 238 240 242 245 245 245 246 246 245 244 242 242 242 244 249 255 256 253 251 251 253 254 253 252 251 249 247 251 258 260 260 261 262 263 263 263 263 266 268 268 269 276 282 284 283 284 285 289 290 286 279 276 276 277 278 278 276 273 270 269 269 270 273 277 280 280 279 280 283 285 285 287 290 292
220 220 221 222 225 228 229 228 227 229 232 234 236 241 245 245 246 246 246 246 247 247 247 246 244 245 251 254 253 251 251 251 251 250 250 248 247 247 252 258 261 260 260 261 262 263 263 264 266 268 267 268 272 277 280 283 286 287 288 286 281 275 274 276 277 277 278 278 277 276 275 273 273 276 281 285 286 285 284 283 284 286 289 289 289
220 221 222 223 225 226 227 226 228 230 231 231 232 236 241 243 245 245 246 247 248 249 249 249 244 242 245 250 250 250 251 252 251 249 247 245 246 249 252 255 256 258 258 259 261 261 261 262 264 265 267 269 272 275 278 283 287 287 284 281 278 274 272 274 275 277 277 277 278 279 277 275 275 277 281 285 287 287 287 286 287 290 290 289 288
220 223 224 225 223 223 224 226 228 230 231 231 231 231 233 237 241 242 243 245 246 247 248 248 244 240 241 245 247 247 248 251 252 251 249 246 246 248 249 250 250 252 254 256 259 260 261 262 262 263 266 271 274 276 278 281 282 280 276 276 276 275 273 273 273 275 277 279 282 282 279 276 274 275 277 280 282 285 286 288 289 289 289 288 288
221 224 225 223 220 219 221 223 225 227 229 231 233 233 234 236 239 241 242 243 244 244 245 245 243 240 239 241 243 244 246 248 250 251 252 251 249 249 248 248 247 247 249 251 255 258 260 262 262 262 265 268 270 272 274 273 270 270 273 275 276 275 275 275 276 278 280 284 286 284 278 274 272 272 274 278 281 284 286 287 288 288 287 288 287
220 223 225 222 219 217 218 219 220 222 225 228 232 235 236 237 238 238 239 241 242 242 242 241 241 241 240 241 242 244 245 246 248 249 252 254 254 253 251 250 248 248 247 248 250 254 257 260 261 262 264 265 265 267 269 266 263 264 269 272 273 273 273 274 276 279 282 285 287 284 278 273 271 270 271 275 280 283 284 285 286 286 286 286 285
219 221 223 223 219 217 217 219 221 222 224 226 230 234 237 238 238 236 237 239 241 241 240 240 240 240 242 243 244 246 247 247 247 248 249 252 255 256 256 255 253 251 251 250 250 252 254 257 260 262 264 263 262 262 262 262 262 263 264 264 266 269 270 271 274 278 281 284 285 284 281 279 276 273 272 274 278 281 283 283 284 283 283 283 283
219 221 223 223 222 220 219 220 222 225 227 229 231 234 237 239 238 236 237 239 240 241 241 240 239 239 241 243 244 246 247 248 249 250 251 252 254 256 258 258 257 254 253 253 252 253 254 257 259 262 262 261 260 258 255 254 259 262 262 262 263 265 268 270 272 276 278 280 281 282 281 281 279 278 277 276 278 281 282 281 281 280 280 281 282
220 221 223 224 225 224 223 223 223 226 229 231 232 234 236 239 239 238 237 238 240 241 242 242 241 241 242 243 245 246 247 248 249 251 253 255 256 257 258 259 259 258 256 255 255 255 256 257 259 261 261 260 259 258 253 252 256 259 259 260 261 263 267 270 272 274 274 275 277 278 279 278 278 278 278 277 278 279 279 279 279 278 278 279 279
222 222 223 224 225 227 227 226 225 226 228 232 234 235 236 238 240 241 241 240 240 241 242 243 243 244 244 245 246 247 248 249 250 251 253 255 256 258 258 258 259 258 258 258 259 258 258 258 258 260 261 261 261 260 255 253 256 258 257 257 259 262 266 269 271 272 272 272 273 275 276 277 277 277 277 277 276 276 277 277 277 277 277 278 278
224 223 223 224 225 227 228 228 227 227 227 230 234 236 238 239 240 241 243 243 243 243 243 243 244 244 245 246 247 248 249 250 251 252 253 254 255 257 258 258 259 258 258 258 259 260 260 259 258 260 261 262 263 262 258 255 256 257 258 259 261 262 264 266 268 269 270 271 272 273 275 276 277 277 277 277 276 276 276 277 277 277 277 278 278
226 225 225 224 225 226 227 229 229 228 228 229 231 235 238 240 241 242 243 244 245 245 245 245 245 245 245 246 247 248 250 251 252 253 254 255 256 257 257 258 258 258 258 257 258 259 260 260 260 260 261 261 262 262 259 257 256 257 259 260 262 263 264 265 266 268 269 269 270 272 274 276 277 277 277 277 276 276 276 277 277 277 277 278 278
229 228 227 227 226 226 227 228 229 230 230 230 230 232 235 237 240 242 243 244 245 245 246 246 246 246 246 247 247 248 250 251 253 254 255 256 257 258 258 258 257 257 257 257 257 258 260 261 261 261 261 261 262 261 259 258 257 258 259 261 262 263 264 265 266 267 268 269 270 272 273 274 276 276 276 276 276 276 276 277 277 277 277 277 277
232 231 230 229 229 229 228 229 229 230 231 232 232 233 234 236 237 239 242 243 245 245 246 246 247 247 247 247 248 249 250 252 253 253 254 255 256 257 258 258 258 257 257 257 257 258 259 260 261 262 262 262 262 261 260 259 258 259 260 262 263 264 265 266 267 268 269 270 271 271 272 273 274 275 275 275 275 276 276 276 276 276 276 277 277
234 233 232 232 231 231 231 231 231 231 232 233 234 235 236 237 237 238 240 241 243 244 245 246 247 247 247 248 248 248 250 251 253 254 254 255 255 256 257 257 258 258 258 258 258 258 258 259 260 261 261 262 262 261 260 260 260 260 261 262 264 265 266 267 267 268 268 269 269 269 270 271 272 273 274 275 275 275 275 275 276 276 276 277 277
237 236 234 234 233 233 233 234 234 234 234 235 236 237 237 238 239 240 240 241 242 243 244 245 246 247 248 248 248 249 250 252 253 254 254 254 254 255 256 257 257 258 258 259 259 259 259 259 259 259 260 260 260 260 260 260 260 261 262 263 265 266 267 267 267 267 268 268 268 268 268 268 269 271 272 273 274 274 275 275 275 275 276 276 277
238 238 237 236 236 235 235 236 236 237 237 237 238 239 239 240 240 241 241 242 243 244 244 244 245 246 247 248 249 250 251 252 254 255 255 254 254 254 255 255 256 257 258 259 259 259 259 259 259 258 258 258 258 259 259 259 260 261 262 264 265 266 266 267 267 267 268 268 268 268 268 268 269 270 271 271 272 272 273 274 274 274 275 275 276
239 240 239 238 237 236 237 237 238 239 240 240 241 241 242 242 242 242 243 243 244 245 246 246 247 247 248 249 250 251 251 252 253 254 254 255 254 254 254 254 255 256 256 257 258 259 259 259 259 259 259 258 258 258 258 259 260 261 262 264 265 265 266 266 267 268 268 268 269 269 269 269 269 270 271 271 272 272 272 273 273 274 274 275 276
240 241 241 240 239 237 237 238 239 240 241 242 243 244 244 245 245 245 246 246 246 247 247 248 248 249 249 250 251 251 252 253 254 254 254 254 255 255 255 255 255 256 256 256 257 258 258 259 259 259 260 259 259 259 260 260 261 262 263 264 265 265 266 266 267 267 268 269 269 269 269 269 270 270 271 271 272 272 272 273 273 273 274 274 275
240 241 242 242 242 241 239 239 239 240 242 243 244 245 246 247 247 248 248 249 249 249 249 249 249 250 251 251 252 252 253 254 254 255 255 255 256 256 255 255 256 256 257 257 257 258 258 259 259 260 260 260 260 261 261 262 262 263 263 264 264 264 265 266 266 267 268 268 269 269 269 269 270 270 271 271 272 272 272 273 273 273 274 274 275
241 241 242 242 243 243 243 242 242 242 242 243 244 245 246 248 249 250 250 250 251 251 251 251 251 251 251 252 252 253 254 254 255 255 256 256 257 257 257 257 257 257 257 258 258 259 259 259 260 260 260 261 261 262 262 262 263 264 264 264 264 264 265 265 266 266 267 268 269 269 269 269 270 271 271 272 272 272 273 273 273 274 274 275 276
242 242 243 243 244 244 244 245 244 244 244 244 244 245 245 246 248 250 251 252 252 252 252 252 252 252 252 252 253 253 254 254 255 255 256 256 257 257 258 258 258 259 259 259 259 259 259 259 259 260 260 261 261 262 262 263 263 264 264 265 265 265 266 266 267 267 268 268 269 270 270 271 271 272 272 273 273 273 273 273 274 274 275 276 277
242 243 243 244 244 245 245 246 246 246 246 246 246 246 246 246 247 248 249 251 252 253 253 253 253 253 253 253 253 253 253 254 255 256 256 257 257 257 257 257 258 258 258 259 259 259 259 259 259 259 260 260 261 262 262 263 263 264 264 265 266 267 268 268 268 269 269 269 270 270 271 271 272 273 273 273 273 274 274 274 275 276 276 277 278
243 243 244 244 245 245 246 246 247 247 247 247 248 248 248 248 248 248 249 249 250 251 252 253 254 254 255 255 254 254 254 254 254 255 256 257 258 258 258 258 257 257 258 258 258 258 258 258 258 259 259 260 260 261 261 262 263 264 265 266 267 268 269 269 270 270 270 270 270 271 271 272 273 273 273 273 274 274 274 275 275 276 277 277 278
244 244 245 245 245 245 246 246 247 247 248 248 248 249 249 249 250 250 250 250 250 251 251 252 253 254 255 256 256 256 256 255 255 255 255 256 257 257 258 258 258 258 258 258 258 258 258 259 259 259 259 260 260 261 262 262 263 265 266 267 268 269 269 270 270 270 270 271 271 272 272 273 273 273 273 273 274 274 275 275 276 276 277 278 279
246 246 246 246 246 246 246 247 247 248 248 248 249 249 250 250 250 251 251 251 252 252 252 252 253 253 254 255 256 257 257 258 258 257 256 256 256 256 257 257 258 258 258 258 259 259 260 260 260 260 261 261 261 262 262 263 264 265 266 267 267 268 269 269 270 270 271 271 272 272 273 273 274 274 274 274 274 275 275 276 277 277 278 279 280
248 247 247 247 247 247 247 248 248 248 249 249 249 249 250 250 251 251 251 252 252 253 253 254 254 254 255 255 256 256 257 258 258 259 259 259 258 257 257 257 257 257 257 258 258 259 259 260 261 261 262 262 263 263 264 264 265 265 266 266 267 268 268 269 270 270 271 272 273 273 274 274 274 274 274 274 275 276 276 277 278 278 279 280 281
249 249 249 249 249 249 249 249 249 249 249 250 250 250 250 251 251 251 252 252 252 253 253 254 254 255 255 256 256 257 257 258 258 259 259 259 260 259 259 259 259 258 258 258 258 258 259 259 260 260 261 262 263 264 264 265 265 266 267 267 268 268 269 270 270 271 272 273 273 274 275 275 275 276 276 276 276 276 277 277 278 279 280 280 281
250 250 250 250 250 250 250 250 250 250 250 250 251 251 251 251 252 252 252 252 253 253 253 254 254 255 255 256 256 257 257 258 258 258 259 259 260 260 260 260 260 260 260 260 259 259 259 260 260 260 261 262 262 263 264 265 265 266 267 267 268 268 269 270 271 271 272 273 274 274 275 276 277 277 278 278 278 279 279 279 280 280 281 281 282
252 252 251 251 251 251 251 251 251 251 252 252 252 252 252 252 252 252 253 253 253 253 254 254 254 255 255 255 256 256 257 257 258 258 259 259 259 260 260 260 261 261 261 261 261 261 261 261 262 262 262 262 263 263 264 264 265 265 266 267 267 268 269 269 270 271 272 273 274 274 275 276 277 277 278 279 279 280 281 281 282 282 283 283 284
254 253 253 253 252 252 252 252 252 252 252 252 253 253 253 253 253 253 254 254 254 254 254 255 255 255 255 256 256 256 257 257 257 258 258 259 259 259 260 260 260 260 261 261 261 262 262 262 263 263 263 263 264 264 264 264 265 265 266 266 267 268 268 269 270 271 272 273 274 274 275 276 277 277 278 279 279 280 281 281 282 283 283 284 284
255 255 254 254 254 253 253 253 253 252 252 252 253 253 253 253 254 254 254 255 255 255 255 256 256 256 256 257 257 257 257 257 258 258 258 258 259 259 259 260 260 260 261 261 261 262 262 262 263 263 263 264 264 264 264 265 265 265 266 266 267 268 268 269 270 271 272 272 273 274 275 276 276 277 278 278 279 280 280 281 282 282 283 283 284
Height
11001 11002 11003 11003 11004 11005 11005 11005 11005 11005 11005 11005 11006 11006 11007 11007 11008 11008 11008 11009 11009 11009 11009 11009 11008 11008 11007 11007 11007 11007 11007 11007 11007 11007 11008 11008 11008 11008 11008 11008 11008 11008 11007 11007 11007 11007 11007 11007 11007 11007 11007 11006 11006 11005 11005 11004 11004 11003 11002 11001 11001 11000 10999 10998 10997 10996 10995 10994 10993 10991 10990 10989 10987 10986 10985 10983 10983 10982 10981 10981 10980 10979 10978 10977 10976
10999 11000 11001 11002 11003 11004 11004 11005 11005 11005 11005 11005 11005 11006 11006 11007 11008 11008 11009 11009 11010 11010 11010 11010 11010 11010 11009 11009 11009 11009 11009 11009 11009 11009 11009 11009 11009 11009 11009 11009 11009 11009 11009 11008 11008 11008 11008 11008 11008 11008 11007 11007 11007 11006 11006 11005 11004 11004 11003 11002 11001 11001 11000 10999 10998 10997 10996 10995 10994 10992 10991 10990 10989 10988 10986 10985 10984 10983 10983 10982 10981 10981 10980 10979 10978
10996 10997 10998 10999 11000 11002 11003 11003 11004 11004 11005 11005 11005 11005 11006 11006 11007 11008 11009 11009 11010 11010 11011 11011 11011 11011 11011 11011 11010 11010 11010 11010 11010 11010 11010 11010 11010 11010 11010 11010 11010 11010 11010 11009 11009 11009 11009 11009 11009 11009 11008 11008 11007 11007 11006 11006 11005 11004 11004 11003 11002 11001 11001 11000 10999 10998 10998 10996 10995 10994 10993 10992 10991 10990 10989 10988 10987 10986 10985 10984 10983 10983 10982 10981 10980
10992 10993 10995 10996 10997 10999 11000 11001 11002 11003 11004 11004 11004 11005 11005 11006 11007 11007 11008 11009 11010 11010 11011 11011 11011 11011 11011 11011 11011 11011 11011 11011 11010 11010 11010 11010 11011 11010 11010 11010 11010 11010 11010 11010 11010 11009 11009 11009 11009 11009 11008 11008 11007 11007 11006 11006 11005 11004 11004 11003 11003 11002 11001 11001 11000 10999 10998 10997 10996 10995 10995 10994 10993 10992 10992 10991 10990 10989 10987 10986 10985 10985 10984 10983 10983
10989 10990 10992 10993 10994 10996 10997 10998 11000 11001 11002 11003 11004 11004 11005 11006 11006 11007 11007 11008 11009 11009 11010 11010 11010 11011 11011 11011 11011 11011 11011 11011 11011 11011 11010 11010 11010 11010 11010 11010 11010 11010 11010 11010 11009 11009 11009 11009 11008 11008 11008 11007 11007 11007 11006 11006 11005 11004 11004 11003 11003 11002 11002 11001 11000 11000 10999 10998 10997 10997 10996 10995 10994 10994 10993 10992 10992 10991 10990 10989 10988 10987 10986 10986 10985
10986 10988 10990 10991 10992 10994 10995 10996 10997 10999 11000 11001 11002 11003 11004 11005 11005 11006 11006 11007 11008 11008 11009 11009 11009 11010 11010 11010 11010 11011 11011 11011 11011 11011 11011 11010 11010 11010 11010 11010 11010 11010 11010 11009 11009 11009 11009 11008 11008 11008 11007 11007 11006 11006 11006 11005 11005 11004 11004 11003 11003 11002 11002 11001 11000 11000 10999 10999 10998 10997 10997 10996 10995 10995 10994 10993 10993 10992 10991 10991 10990 10989 10988 10988 10987
10984 10985 10987 10988 10990 10991 10993 10994 10996 10997 10998 10999 11001 11002 11002 11003 11004 11004 11005 11006 11006 11006 11007 11007 11008 11008 11009 11009 11009 11010 11010 11010 11010 11010 11010 11010 11010 11010 11010 11010 11010 11010 11010 11009 11009 11009 11009 11008 11008 11007 11007 11007 11006 11006 11006 11005 11005 11004 11004 11003 11003 11002 11002 11001 11001 11000 10999 10999 10998 10998 10998 10997 10996 10996 10995 10994 10994 10993 10992 10992 10991 10991 10990 10989 10989
10980 10982 10983 10984 10986 10988 10990 10992 10993 10995 10996 10997 10998 10999 11000 11001 11002 11002 11003 11003 11004 11005 11005 11006 11006 11007 11007 11007 11008 11008 11008 11008 11009 11009 11009 11009 11010 11010 11010 11010 11010 11010 11009 11009 11009 11009 11008 11008 11008 11007 11007 11007 11006 11006 11005 11005 11004 11004 11004 11003 11003 11002 11002 11001 11001 11000 11000 10999 10999 10998 10998 10998 10997 10997 10996 10995 10994 10994 10993 10993 10993 10992 10991 10990 10990
10977 10978 10979 10981 10983 10985 10987 10989 10991 10992 10993 10994 10995 10996 10997 10998 10999 11000 11000 11001 11002 11002 11003 11004 11005 11005 11005 11005 11006 11006 11006 11007 11007 11008 11008 11008 11008 11008 11009 11009 11009 11009 11009 11009 11009 11008 11008 11008 11008 11007 11007 11007 11006 11006 11005 11005 11004 11004 11003 11003 11003 11002 11002 11001 11001 11000 11000 10999 10999 10998 10998 10998 10997 10997 10996 10996 10995 10995 10995 10994 10994 10993 10993 10992 10991
10973 10974 10976 10978 10981 10983 10984 10986 10988 10989 10989 10990 10991 10992 10993 10994 10995 10996 10997 10998 10999 10999 11000 11001 11002 11003 11003 11004 11004 11004 11004 11005 11005 11006 11006 11007 11007 11007 11007 11008 11008 11008 11008 11008 11008 11008 11008 11007 11007 11007 11007 11006 11006 11006 11005 11005 11004 11004 11003 11003 11002 11002 11002 11001 11001 11000 11000 10999 10999 10998 10998 10997 10997 10997 10996 10996 10996 10996 10995 10995 10994 10994 10993 10993 10993
10970 10972 10974 10976 10978 10980 10982 10984 10985 10986 10986 10987 10987 10988 10990 10990 10991 10992 10993 10995 10995 10996 10997 10998 10999 11000 11001 11002 11002 11002 11002 11003 11003 11004 11004 11005 11005 11005 11005 11006 11006 11006 11006 11006 11006 11006 11006 11006 11006 11006 11006 11006 11005 11005 11004 11004 11004 11004 11003 11002 11002 11002 11002 11001 11001 11000 10999 10999 10998 10998 10997 10997 10996 10996 10996 10996 10995 10995 10995 10995 10994 10994 10994 10993 10994
10968 10970 10972 10973 10975 10976 10979 10981 10982 10982 10983 10983 10984 10985 10986 10987 10987 10988 10989 10991 10992 10993 10993 10994 10995 10997 10998 10999 11000 11000 11000 11000 11001 11001 11002 11002 11002 11003 11003 11003 11003 11003 11004 11004 11004 11005 11005 11005 11005 11005 11004 11004 11004 11003 11003 11003 11003 11002 11002 11002 11001 11001 11001 11000 11000 11000 10999 10999 10998 10998 10997 10997 10996 10996 10995 10995 10995 10994 10994 10994 10994 10994 10994 10994 10994
10965 10967 10969 10970 10971 10972 10974 10977 10978 10978 10978 10979 10980 10981 10982 10983 10984 10984 10985 10987 10989 10989 10989 10989 10990 10992 10993 10995 10996 10997 10997 10997 10997 10997 10998 10998 10999 10999 10999 11000 11000 11000 11001 11001 11002 11002 11003 11003 11003 11003 11003 11003 11002 11002 11001 11001 11001 11001 11001 11000 11000 11000 10999 10999 10999 10999 10999 10998 10998 10997 10997 10997 10996 10995 10995 10994 10994 10993 10993 10993 10993 10993 10993 10994 10994
10959 10963 10965 10966 10967 10968 10969 10971 10973 10973 10973 10973 10975 10976 10977 10978 10979 10981 10982 10982 10984 10985 10985 10985 10986 10988 10989 10990 10992 10993 10994 10994 10994 10994 10995 10995 10995 10996 10996 10997 10997 10997 10998 10998 10999 10999 11000 11000 11001 11001 11001 11001 11001 11000 11000 11000 11000 11000 10999 10999 10999 10998 10998 10997 10997 10997 10997 10997 10997 10996 10996 10996 10995 10995 10994 10993 10993 10993 10992 10992 10992 10992 10992 10992 10993
10953 10957 10960 10962 10962 10963 10965 10966 10968 10968 10969 10969 10969 10969 10970 10971 10973 10976 10977 10978 10980 10981 10981 10982 10983 10983 10984 10985 10987 10988 10989 10990 10990 10991 10991 10991 10992 10992 10993 10994 10994 10994 10994 10995 10995 10996 10997 10997 10998 10998 10998 10998 10998 10998 10998 10998 10998 10998 10997 10997 10997 10996 10996 10996 10995 10995 10995 10995 10995 10995 10994 10994 10994 10993 10993 10992 10991 10991 10991 10991 10991 10990 10990 10990 10990
10948 10951 10955 10958 10959 10960 10960 10961 10962 10963 10964 10964 10962 10962 10964 10965 10967 10970 10971 10973 10975 10976 10977 10978 10978 10978 10979 10980 10981 10983 10984 10985 10986 10986 10986 10986 10987 10987 10989 10990 10990 10991 10991 10992 10992 10993 10993 10994 10994 10995 10995 10995 10995 10995 10995 10995 10995 10995 10994 10994 10994 10994 10994 10993 10993 10993 10993 10993 10993 10992 10992 10992 10991 10991 10991 10990 10989 10989 10990 10990 10990 10989 10988 10988 10988
10942 10944 10947 10951 10954 10955 10955 10955 10956 10957 10958 10958 10957 10957 10959 10960 10962 10964 10965 10967 10968 10970 10973 10973 10972 10972 10974 10975 10976 10978 10979 10980 10980 10981 10981 10982 10982 10983 10984 10985 10986 10986 10987 10988 10989 10989 10990 10990 10991 10991 10991 10991 10991 10991 10992 10992 10992 10991 10991 10990 10990 10990 10990 10990 10990 10991 10990 10990 10990 10990 10990 10989 10989 10988 10988 10987 10987 10987 10988 10988 10988 10987 10987 10987 10986
10934 10936 10938 10941 10945 10947 10947 10947 10948 10949 10951 10952 10953 10953 10954 10955 10957 10957 10958 10960 10961 10963 10966 10966 10966 10967 10969 10970 10972 10973 10973 10974 10975 10976 10978 10978 10979 10980 10980 10981 10982 10982 10983 10985 10985 10985 10985 10986 10987 10987 10987 10987 10987 10987 10988 10988 10988 10988 10988 10987 10986 10986 10986 10986 10986 10987 10987 10986 10986 10986 10986 10986 10985 10985 10984 10984 10984 10984 10985 10985 10984 10984 10984 10984 10983
10926 10928 10930 10932 10935 10937 10938 10938 10940 10942 10944 10944 10946 10947 10947 10949 10950 10950 10951 10953 10955 10956 10957 10959 10961 10963 10964 10965 10967 10967 10967 10968 10970 10971 10973 10974 10975 10976 10977 10977 10978 10978 10979 10980 10981 10981 10981 10982 10982 10983 10983 10983 10983 10983 10983 10983 10984 10984 10984 10983 10983 10982 10982 10982 10982 10982 10982 10982 10982 10982 10982 10982 10981 10981 10980 10980 10980 10981 10981 10981 10981 10980 10980 10979 10979
10917 10920 10922 10924 10926 10927 10928 10929 10931 10934 10935 10936 10937 10938 10939 10941 10942 10942 10943 10946 10948 10949 10950 10952 10954 10957 10958 10960 10961 10961 10962 10964 10965 10966 10968 10970 10971 10971 10972 10973 10973 10974 10975 10976 10976 10976 10976 10976 10976 10977 10978 10979 10978 10978 10978 10979 10979 10979 10979 10978 10978 10977 10977 10977 10977 10978 10977 10977 10977 10977 10977 10977 10977 10976 10976 10976 10976 10976 10976 10977 10976 10976 10975 10974 10974
10909 10911 10912 10914 10916 10918 10919 10921 10923 10925 10927 10928 10930 10930 10931 10932 10933 10934 10935 10938 10940 10942 10943 10945 10947 10950 10952 10954 10955 10955 10956 10958 10960 10961 10963 10965 10966 10967 10968 10968 10969 10969 10969 10970 10970 10970 10970 10970 10970 10971 10972 10973 10973 10973 10973 10973 10974 10973 10973 10973 10973 10972 10973 10973 10973 10973 10973 10973 10973 10972 10972 10972 10972 10971 10971 10971 10971 10971 10971 10971 10971 10971 10971 10970 10969
10900 10902 10903 10905 10908 10910 10911 10912 10914 10915 10917 10919 10921 10922 10923 10923 10924 10925 10927 10929 10932 10934 10935 10938 10940 10943 10945 10947 10949 10949 10950 10951 10954 10955 10957 10958 10960 10961 10962 10963 10963 10963 10963 10963 10964 10963 10963 10963 10964 10965 10966 10966 10967 10967 10968 10968 10968 10968 10967 10966 10967 10967 10968 10968 10968 10968 10968 10969 10968 10968 10968 10968 10967 10966 10965 10965 10965 10965 10965 10965 10965 10965 10965 10965 10964
10891 10893 10895 10897 10900 10902 10903 10904 10905 10905 10907 10909 10911 10913 10914 10914 10915 10916 10919 10921 10924 10926 10928 10931 10933 10935 10937 10939 10941 10942 10943 10944 10946 10948 10950 10952 10953 10954 10955 10955 10955 10956 10957 10957 10957 10957 10957 10957 10958 10959 10960 10961 10961 10961 10962 10963 10963 10962 10961 10961 10962 10963 10962 10962 10962 10962 10963 10963 10963 10962 10962 10962 10962 10961 10959 10959 10959 10959 10959 10959 10959 10959 10959 10958 10958
10882 10884 10887 10889 10891 10893 10894 10896 10896 10897 10899 10901 10903 10905 10907 10907 10908 10911 10913 10915 10917 10919 10921 10923 10924 10926 10928 10930 10933 10935 10935 10936 10938 10940 10942 10944 10945 10946 10947 10947 10948 10949 10950 10950 10951 10951 10951 10952 10953 10954 10956 10957 10957 10956 10957 10957 10957 10955 10954 10954 10956 10957 10957 10956 10955 10956 10956 10957 10957 10956 10955 10955 10955 10954 10953 10952 10953 10953 10953 10952 10952 10952 10952 10951 10951
10872 10875 10878 10880 10882 10883 10885 10887 10888 10889 10890 10892 10894 10896 10898 10899 10901 10903 10905 10907 10909 10912 10914 10914 10914 10917 10919 10921 10924 10926 10927 10928 10931 10933 10934 10936 10937 10938 10939 10939 10940 10941 10942 10942 10943 10945 10946 10947 10948 10949 10951 10952 10952 10952 10952 10951 10950 10949 10947 10947 10948 10949 10950 10950 10949 10949 10950 10950 10950 10950 10949 10948 10948 10948 10947 10946 10946 10946 10946 10945 10945 10944 10944 10944 10944
10862 10865 10868 10870 10872 10874 10876 10878 10880 10881 10881 10883 10885 10886 10888 10889 10892 10894 10896 10898 10900 10902 10904 10905 10906 10908 10910 10912 10915 10917 10917 10919 10922 10925 10926 10928 10929 10930 10931 10932 10933 10933 10934 10935 10936 10938 10939 10941 10941 10942 10944 10946 10946 10947 10945 10942 10941 10941 10941 10940 10939 10939 10940 10941 10942 10942 10943 10943 10943 10943 10943 10942 10942 10941 10940 10940 10939 10939 10939 10939 10938 10938 10937 10937 10936
10852 10855 10858 10861 10863 10864 10866 10868 10870 10872 10873 10874 10876 10878 10879 10880 10883 10885 10887 10889 10890 10892 10894 10896 10897 10899 10901 10903 10906 10908 10908 10910 10912 10914 10917 10919 10920 10922 10924 10924 10925 10926 10926 10927 10929 10930 10932 10934 10934 10934 10936 10938 10939 10938 10937 10935 10934 10933 10933 10932 10932 10931 10931 10932 10933 10933 10934 10934 10934 10934 10934 10934 10934 10934 10933 10932 10932 10932 10932 10932 10931 10930 10930 10929 10928
10842 10845 10848 10851 10853 10855 10856 10858 10860 10862 10864 10866 10868 10869 10870 10872 10874 10876 10878 10880 10881 10883 10885 10887 10888 10890 10892 10895 10897 10899 10899 10900 10902 10904 10907 10909 10911 10913 10914 10915 10917 10918 10918 10919 10921 10922 10924 10926 10927 10926 10927 10928 10930 10929 10928 10927 10927 10927 10925 10924 10923 10923 10922 10923 10924 10925 10925 10924 10924 10924 10924 10924 10925 10924 10924 10924 10923 10923 10924 10923 10923 10922 10921 10920 10919
10832 10835 10837 10840 10842 10844 10846 10847 10849 10851 10853 10856 10858 10860 10861 10863 10864 10866 10869 10871 10872 10874 10876 10877 10879 10881 10884 10886 10888 10890 10890 10891 10892 10895 10897 10899 10901 10902 10904 10905 10907 10909 10910 10911 10912 10913 10915 10917 10918 10917 10916 10917 10920 10921 10921 10919 10919 10919 10917 10916 10915 10915 10914 10915 10916 10916 10916 10916 10915 10915 10914 10914 10914 10914 10914 10913 10913 10913 10913 10913 10912 10912 10911 10910 10909
10821 10824 10826 10828 10831 10833 10835 10836 10838 10839 10842 10844 10847 10849 10851 10853 10855 10856 10858 10861 10862 10864 10866 10867 10869 10871 10874 10877 10879 10880 10880 10881 10883 10885 10887 10889 10891 10892 10894 10895 10896 10899 10901 10902 10903 10904 10905 10907 10908 10908 10906 10907 10909 10912 10912 10911 10910 10909 10908 10907 10907 10907 10907 10907 10907 10907 10908 10907 10907 10906 10905 10904 10903 10903 10903 10902 10902 10902 10901 10901 10901 10900 10899 10899 10898
10808 10811 10814 10816 10819 10821 10823 10825 10827 10828 10830 10832 10835 10837 10839 10842 10844 10846 10847 10849 10852 10853 10855 10857 10858 10861 10864 10867 10869 10869 10870 10871 10873 10874 10876 10878 10880 10882 10884 10885 10886 10888 10890 10892 10893 10894 10895 10896 10897 10897 10897 10897 10898 10900 10901 10901 10901 10900 10898 10897 10898 10898 10898 10898 10898 10898 10898 10898 10898 10897 10896 10895 10894 10893 10892 10891 10891 10890 10889 10889 10889 10888 10888 10887 10886
10794 10798 10801 10804 10807 10809 10811 10813 10815 10818 10820 10821 10823 10825 10828 10830 10832 10834 10836 10838 10840 10842 10844 10846 10848 10851 10854 10857 10858 10859 10860 10861 10862 10864 10865 10867 10869 10871 10873 10875 10876 10877 10879 10881 10883 10884 10885 10885 10885 10886 10886 10887 10888 10889 10890 10891 10891 10890 10888 10887 10887 10888 10888 10889 10889 10889 10889 10889 10888 10887 10887 10885 10884 10883 10882 10881 10880 10879 10878 10878 10878 10877 10876 10875 10874
10781 10784 10788 10791 10794 10797 10799 10801 10803 10806 10809 10811 10813 10814 10816 10818 10820 10822 10824 10826 10828 10830 10832 10835 10838 10840 10843 10846 10848 10849 10850 10851 10852 10853 10855 10856 10858 10860 10861 10863 10864 10866 10868 10870 10872 10874 10874 10875 10874 10874 10875 10876 10876 10877 10878 10880 10881 10880 10879 10878 10878 10878 10878 10878 10878 10878 10878 10878 10877 10877 10876 10875 10874 10873 10872 10870 10869 10868 10867 10866 10866 10866 10865 10863 10862
10767 10771 10774 10778 10781 10783 10786 10788 10790 10793 10796 10799 10802 10804 10805 10807 10809 10811 10813 10814 10816 10818 10820 10823 10825 10828 10831 10834 10837 10839 10840 10841 10842 10843 10844 10845 10847 10848 10850 10852 10853 10855 10856 10858 10860 10861 10863 10864 10864 10864 10864 10865 10865 10865 10866 10867 10868 10868 10868 10868 10868 10867 10867 10867 10867 10866 10866 10866 10865 10865 10864 10863 10863 10862 10861 10859 10858 10857 10856 10855 10855 10854 10853 10851 10850
10753 10757 10761 10764 10767 10769 10772 10775 10777 10780 10782 10785 10788 10790 10793 10795 10797 10799 10801 10803 10804 10805 10807 10809 10812 10814 10817 10821 10824 10827 10829 10831 10832 10833 10834 10835 10836 10837 10839 10840 10842 10843 10844 10845 10846 10848 10849 10851 10852 10853 10854 10853 10853 10854 10854 10854 10854 10855 10855 10855 10855 10855 10855 10854 10854 10853 10852 10852 10852 10852 10851 10851 10850 10849 10848 10847 10846 10845 10845 10844 10843 10842 10840 10838 10837
10738 10742 10746 10750 10753 10755 10758 10760 10763 10766 10768 10771 10773 10775 10778 10781 10784 10787 10789 10791 10792 10793 10794 10796 10798 10801 10804 10807 10810 10813 10816 10818 10820 10822 10823 10824 10825 10826 10827 10829 10830 10832 10832 10833 10833 10834 10835 10837 10839 10841 10841 10842 10842 10843 10842 10841 10841 10842 10842 10842 10842 10842 10841 10841 10840 10839 10838 10838 10838 10838 10838 10837 10837 10836 10835 10834 10833 10832 10832 10831 10830 10828 10827 10826 10824
10723 10727 10730 10734 10738 10741 10743 10745 10748 10750 10753 10755 10758 10760 10762 10765 10768 10772 10775 10777 10779 10780 10781 10782 10785 10788 10790 10793 10795 10798 10801 10804 10806 10808 10810 10812 10812 10813 10814 10816 10818 10819 10820 10821 10821 10822 10822 10823 10825 10827 10828 10829 10830 10831 10830 10829 10828 10829 10829 10829 10829 10829 10829 10828 10827 10826 10825 10825 10825 10824 10824 10823 10823 10822 10821 10820 10819 10819 10818 10817 10816 10815 10814 10813 10811
10709 10712 10715 10718 10723 10726 10729 10730 10732 10735 10737 10739 10742 10744 10746 10748 10752 10755 10759 10762 10765 10766 10767 10769 10771 10774 10777 10779 10781 10783 10786 10788 10791 10793 10796 10798 10800 10801 10802 10803 10804 10806 10808 10808 10809 10810 10810 10810 10811 10812 10814 10815 10816 10817 10817 10816 10815 10815 10815 10815 10815 10815 10815 10814 10813 10813 10812 10812 10812 10811 10811 10810 10809 10808 10807 10806 10805 10804 10803 10803 10802 10801 10800 10799 10797
10695 10697 10700 10702 10706 10710 10713 10715 10717 10720 10722 10724 10726 10728 10730 10733 10735 10738 10742 10746 10749 10751 10753 10755 10757 10760 10763 10765 10767 10769 10771 10773 10775 10778 10781 10784 10786 10788 10789 10790 10791 10792 10794 10795 10796 10796 10797 10797 10798 10798 10799 10800 10801 10802 10803 10802 10802 10801 10802 10801 10800 10800 10800 10799 10799 10799 10798 10798 10797 10797 10796 10796 10795 10794 10793 10793 10791 10790 10789 10788 10787 10786 10785 10784 10782
10680 10682 10685 10687 10690 10693 10696 10699 10702 10704 10707 10709 10710 10713 10715 10717 10719 10721 10724 10728 10732 10735 10738 10740 10742 10745 10748 10750 10752 10754 10756 10758 10760 10763 10766 10769 10772 10773 10775 10777 10778 10779 10779 10780 10781 10782 10783 10784 10784 10784 10784 10785 10785 10786 10786 10787 10787 10786 10787 10786 10786 10785 10785 10785 10784 10784 10784 10783 10783 10782 10781 10780 10780 10779 10779 10778 10776 10775 10774 10773 10772 10771 10769 10768 10766
10663 10666 10669 10671 10674 10676 10678 10681 10684 10687 10690 10692 10694 10697 10700 10702 10704 10705 10707 10709 10713 10717 10720 10723 10726 10729 10732 10734 10737 10739 10740 10742 10744 10747 10750 10753 10756 10758 10760 10762 10763 10764 10765 10765 10766 10767 10767 10768 10769 10769 10770 10770 10770 10769 10769 10770 10770 10770 10770 10770 10770 10770 10771 10771 10771 10770 10770 10769 10768 10767 10766 10765 10764 10764 10763 10762 10760 10759 10759 10758 10756 10755 10753 10752 10751
10647 10650 10652 10655 10657 10659 10661 10663 10666 10669 10672 10675 10678 10680 10683 10686 10689 10690 10691 10693 10695 10698 10702 10705 10708 10711 10714 10717 10720 10723 10725 10726 10728 10731 10734 10736 10739 10742 10745 10746 10747 10748 10749 10750 10751 10751 10752 10752 10753 10753 10753 10754 10754 10753 10753 10753 10753 10753 10753 10753 10753 10753 10754 10755 10756 10756 10755 10754 10752 10751 10750 10749 10749 10748 10747 10745 10744 10743 10742 10741 10740 10739 10738 10736 10735
10631 10633 10636 10638 10640 10642 10644 10646 10648 10651 10654 10658 10661 10663 10665 10668 10671 10673 10675 10677 10679 10682 10685 10687 10690 10693 10696 10699 10703 10706 10708 10710 10713 10715 10717 10719 10722 10725 10728 10730 10732 10732 10733 10734 10735 10735 10736 10737 10737 10737 10737 10737 10736 10736 10736 10736 10736 10736 10736 10735 10735 10736 10737 10738 10738 10738 10737 10736 10735 10734 10733 10733 10732 10731 10729 10728 10727 10726 10725 10724 10723 10722 10721 10719 10718
10613 10616 10618 10621 10624 10625 10627 10629 10630 10633 10636 10640 10643 10645 10646 10649 10651 10654 10656 10658 10661 10665 10668 10671 10674 10677 10679 10681 10684 10687 10690 10693 10696 10699 10701 10703 10705 10708 10710 10712 10714 10715 10716 10717 10718 10719 10720 10721 10721 10721 10721 10720 10720 10719 10719 10719 10719 10719 10719 10718 10718 10719 10719 10719 10719 10718 10717 10716 10716 10716 10716 10715 10715 10713 10712 10711 10710 10709 10708 10706 10705 10704 10703 10701 10700
10595 10597 10600 10603 10605 10608 10610 10612 10613 10616 10619 10622 10625 10626 10628 10630 10632 10634 10636 10639 10642 10646 10650 10653 10657 10660 10662 10665 10667 10669 10671 10674 10678 10681 10684 10687 10689 10690 10691 10693 10694 10696 10698 10699 10700 10701 10702 10703 10704 10704 10704 10704 10703 10703 10702 10702 10702 10702 10702 10702 10702 10702 10701 10700 10699 10698 10696 10696 10696 10697 10697 10696 10695 10694 10694 10693 10692 10691 10690 10688 10687 10686 10684 10683 10682
10575 10578 10580 10583 10586 10589 10592 10594 10595 10598 10601 10604 10607 10608 10610 10611 10613 10616 10619 10622 10625 10627 10630 10634 10637 10640 10643 10646 10649 10651 10654 10657 10660 10664 10667 10669 10671 10672 10673 10673 10675 10676 10678 10680 10682 10684 10685 10686 10686 10686 10685 10685 10685 10686 10686 10686 10686 10686 10686 10686 10686 10685 10684 10682 10680 10678 10677 10677 10676 10676 10676 10676 10676 10675 10675 10674 10674 10673 10671 10670 10669 10667 10666 10664 10663
10555 10558 10561 10564 10566 10569 10572 10574 10577 10579 10583 10586 10588 10589 10590 10592 10595 10599 10601 10603 10605 10608 10611 10613 10617 10620 10623 10626 10629 10633 10636 10640 10642 10645 10648 10650 10652 10653 10654 10655 10656 10657 10659 10661 10663 10665 10666 10667 10668 10668 10668 10668 10668 10668 10668 10668 10668 10669 10669 10669 10669 10667 10665 10664 10662 10660 10659 10658 10657 10656 10655 10654 10654 10653 10653 10653 10653 10653 10652 10651 10650 10649 10647 10646 10644
10537 10539 10541 10543 10545 10548 10550 10553 10556 10559 10562 10565 10567 10568 10571 10574 10577 10579 10581 10583 10585 10588 10591 10594 10597 10600 10604 10607 10611 10615 10618 10621 10623 10625 10627 10630 10632 10634 10635 10636 10637 10638 10639 10640 10642 10644 10645 10646 10648 10649 10650 10651 10650 10649 10649 10650 10650 10651 10651 10651 10650 10649 10648 10646 10645 10643 10641 10639 10638 10637 10635 10634 10632 10631 10630 10629 10628 10628 10628 10627 10627 10626 10624 10623 10622
10520 10521 10522 10524 10526 10528 10530 10532 10534 10537 10540 10542 10544 10547 10551 10554 10556 10558 10560 10563 10565 10568 10570 10573 10577 10581 10585 10589 10592 10595 10597 10600 10602 10605 10608 10610 10611 10613 10615 10616 10618 10619 10620 10621 10622 10623 10625 10625 10626 10628 10629 10630 10630 10631 10631 10632 10632 10632 10631 10630 10630 10630 10629 10629 10627 10626 10624 10622 10620 10618 10617 10615 10614 10612 10610 10609 10607 10605 10604 10603 10602 10600 10599 10597 10596
10504 10504 10504 10505 10507 10509 10510 10511 10513 10516 10518 10520 10522 10526 10529 10532 10534 10536 10538 10541 10544 10547 10550 10554 10558 10562 10565 10568 10571 10573 10575 10578 10581 10585 10587 10589 10590 10591 10593 10594 10596 10598 10600 10602 10604 10605 10606 10606 10606 10607 10607 10608 10609 10610 10611 10612 10612 10612 10612 10611 10611 10610 10610 10609 10609 10608 10606 10604 10602 10600 10599 10597 10595 10594 10592 10590 10588 10586 10584 10582 10580 10579 10577 10575 10573
10487 10488 10488 10488 10489 10491 10492 10493 10495 10497 10499 10500 10502 10505 10508 10510 10513 10515 10517 10519 10523 10527 10530 10534 10537 10540 10544 10547 10549 10551 10554 10557 10560 10563 10565 10566 10568 10569 10570 10572 10574 10577 10579 10582 10584 10586 10586 10587 10587 10587 10586 10587 10587 10588 10589 10590 10590 10590 10591 10591 10591 10590 10590 10589 10589 10588 10587 10586 10584 10582 10580 10579 10577 10575 10574 10572 10570 10568 10565 10563 10562 10560 10558 10555 10554